Friday, October 24, 2014
07:08 UTC
  |  Log In   |  Register Free
Airport Search:

Hillsboro Municipal Airport
(KINJ)

Hillsboro Municipal Airport Diagram
No Airport Diagram Available

FAA data valid effective September 18, 2014 - November 13, 2014 (unless otherwise noted).

 
 
 
 
 
 
 
 
 
 
 
 
 
 

Current Aviation Weather for Hillsboro Municipal Airport (KINJ)

The most recent METAR observation for KINJ was updated at: 0610
METAR Summary (Translated METAR)
KINJ
240555Z AUTO 14005KT 10SM CLR 18/12 A3012 RMK AO2 T01830122 10235 20183 402740172
KCPT
240555Z AUTO 15006KT 10SM CLR 18/15 A3013 RMK AO2
(23.6 nm NW from KINJ)
KJWY
240555Z AUTO 00000KT 10SM CLR 16/14 A3014 RMK AO2 T01620139 10216 20162 402610160
(24.4 nm NE from KINJ)
TAF
No TAF information found within 50 nm of KINJ
  Airport Weather Conditions for KINJ

 Current Weather at INJ
65° F
Fair
Southeast winds at 6.9 mph
INJ NOAA Radar

Pressure: 30.12 in
Humidity: 68%
Wind: Southeast at 6.9 MPH (6 KT)
Dew Point: 54.1°F
Visibility: 10.00 mi


Airport Weather Forecast for KINJ

Translated METAR and TAF for KINJ
Translated METAR for KINJ (0703 UTC 24 October 2014)
found at http://aviationweather.gov/adds/metars/
 
METAR text: KINJ 240655Z AUTO 15005KT 10SM SCT070 18/12 A3013 RMK AO2 T01800122
Conditions at: KINJ (HILLSBORO , TX, US) observed 0655 UTC 24 October 2014
Temperature: 18.0°C (64°F)
Dewpoint: 12.2°C (54°F) [RH = 69%]
Pressure (altimeter): 30.13 inches Hg (1020.4 mb)
Winds: from the SSE (150 degrees) at 6 MPH (5 knots; 2.6 m/s)
Visibility: 10 or more miles (16+ km)
Ceiling: at least 12,000 feet AGL
Clouds: scattered clouds at 7000 feet AGL
Weather: automated observation with no human augmentation;
there may or may not be significant weather present at this time
Translated TAF for KINJ

There is no translated TAF available for this airport

Find All Airport Services Find A Hotel Find A Rental Car Find A Golf Course Find A Restaurant $100 Hamburger



FBO's on the Field
FBO Company Facility Photos Services Transportation Aviation Fuel Prices: Prices include tax
Catering Weather Repair Courtesy Rental Type 100LL JetA JetA+ MOGAS 8087
 
Hillsboro Municipal Airport

This FBO has not yet been rated
FS:Avfuel
Last Updated: Oct-21
Login to update fuel prices
SS:
Contact Hillsboro Municipal AirportMore FBO Information
 
Add another FBO Facility Photos Catering Weather Repair Courtesy Rental Type 100LL JetA JetA+ MOGAS 8087
Services Transportation Aviation Fuel Prices: Prices include tax


model-print
model-print
model-print
model-print